Voltar ao catálogo

STARLINK-30243

AtivoComunicaçõesVLEO
NORAD 57648·PAYLOAD·🇺🇸 United States

Lançado Aug 17, 2023 de Cape Canaveral Space Force Station

Loading…

Próximas Passagens (próximas 24 horas)

TLE

AtualizadoSource: CelesTrak SupGP

Época: Sep 14, 2026, 13:48 UTC

1 57648C 23122S   26257.57548611  .00031233  00000+0  11313-2 0  2578
2 57648  43.0022 105.8838 0001953 262.7128  85.1203 15.27562200    12

Acompanhe STARLINK-30243 em tempo real com AllMySat

Download on the App Store